Home   Weather   Bratislava   Past weeks

Flag for Slovakia Past Weather in Bratislava, Slovakia — Yesterday and Last 2 Weeks

Now
46 °F

Scattered clouds.


Feels Like: 41 °F
Forecast: 35 / 56 °F
Wind: 12 mph from Northwest

Location: Bratislava Ivanka

Current Time: Apr 23, 2017 at 9:52:39 am

Latest Report: Apr 23, 2017 at 9:00 am


Visibility: N/A

Pressure: 30.09 "Hg

Humidity: 62%

Dew Point: 34 °F

Location of BratislavaLocation

Past Weather in Bratislava — Graph

°F

Bratislava Temperature Yesterday

Maximum temperature yesterday: 57 °F (at 2:30 pm)
Minimum temperature yesterday: 43 °F (at 9:30 pm)
Average temperature yesterday: 50 °F

High & Low Weather Summary for the Past Weeks

 TemperatureHumidityPressure
High72 °F (Apr 10, 4:30 pm)94% (Apr 13, 6:00 am)30.45 "Hg (Apr 13, 6:00 am)
Low32 °F (Apr 21, 6:00 am)33% (Apr 10, 4:30 pm)29.80 "Hg (Apr 13, 4:30 am)
Average49 °F64%30.07 "Hg
* Reported Apr 8 8:00 am — Apr 23 8:30 am, Bratislava, Weather by CustomWeather, © 2017

Note: Actual official high and low records may vary slightly from our data, if they occured in-between our weather recording intervals... More about our weather records

Advertising

Bratislava Weather History for the Previous 24 Hours

Scroll right to see more
 ConditionsComfort  
Time TempWeatherWind HumidityBarometerVisibility
8:30 am
Sun, Apr 23
45 °FScattered clouds.9 mph71%30.09 "HgN/A
8:00 am43 °FScattered clouds.7 mph71%30.09 "HgN/A
7:30 am41 °FScattered clouds.3 mph76%30.09 "HgN/A
7:00 am41 °FPartly sunny.2 mph76%30.07 "HgN/A
6:30 am41 °FScattered clouds.2 mph76%30.07 "HgN/A
6:00 am41 °FPartly sunny.1 mph81%30.04 "HgN/A
5:30 am39 °FClear.2 mph87%30.04 "Hg10 mi
5:00 am41 °FPassing clouds.3 mph81%30.07 "HgN/A
4:30 am41 °FClear.5 mph81%30.04 "Hg10 mi
4:00 am41 °FClear.7 mph81%30.04 "Hg10 mi
3:30 am41 °FClear.7 mph87%30.04 "Hg10 mi
3:00 am41 °FClear.5 mph87%30.04 "Hg10 mi
2:30 am43 °FClear.6 mph81%30.04 "Hg10 mi
2:00 am41 °FClear.7 mph87%30.04 "Hg10 mi
1:30 am43 °FPassing clouds.8 mph81%30.07 "HgN/A
1:00 am43 °FPassing clouds.6 mph81%30.07 "HgN/A
12:30 am43 °FPassing clouds.9 mph81%30.07 "HgN/A
12:00 am43 °FPassing clouds.9 mph81%30.07 "HgN/A
11:30 pm
Sat, Apr 22
43 °FPassing clouds.7 mph81%30.04 "HgN/A
11:00 pm45 °FPassing clouds.7 mph76%30.04 "HgN/A
10:30 pm43 °FPartly cloudy.12 mph87%30.07 "HgN/A
10:00 pm43 °FPassing clouds.10 mph87%30.07 "HgN/A
9:30 pm43 °FPassing clouds.9 mph87%30.07 "HgN/A
8:30 pm45 °FLight rain. Passing clouds.9 mph81%30.04 "HgN/A
8:00 pm45 °FLight rain. Partly cloudy.8 mph81%30.04 "HgN/A
7:30 pm45 °FLight rain. Partly sunny.10 mph81%30.04 "HgN/A
7:00 pm46 °FLight rain. Broken clouds.13 mph82%30.04 "HgN/A
6:30 pm48 °FLight rain. Partly sunny.16 mph87%30.01 "HgN/A
6:00 pm52 °FPartly sunny.14 mph72%29.98 "HgN/A
5:30 pm54 °FLight rain. Partly sunny.21 mph63%29.98 "HgN/A
5:00 pm55 °FPartly sunny.20 mph51%29.98 "HgN/A
4:30 pm57 °FPassing clouds.20 mph51%29.98 "HgN/A
4:00 pm55 °FScattered clouds.20 mph55%29.98 "HgN/A
3:30 pm55 °FLight rain. Broken clouds.21 mph59%30.01 "HgN/A
3:00 pm55 °FLight rain. Broken clouds.22 mph59%30.01 "HgN/A
2:30 pm57 °FBroken clouds.20 mph48%30.04 "HgN/A
2:00 pm55 °FBroken clouds.22 mph51%30.04 "HgN/A
1:30 pm55 °FBroken clouds.14 mph51%30.04 "HgN/A
1:00 pm55 °FBroken clouds.16 mph47%30.07 "HgN/A
12:30 pm55 °FBroken clouds.16 mph51%30.07 "HgN/A
12:00 pm55 °FBroken clouds.22 mph47%30.07 "HgN/A
11:30 am55 °FSunny.22 mph47%30.07 "Hg10 mi
11:00 am54 °FSunny.17 mph47%30.07 "Hg10 mi
10:30 am54 °FSunny.17 mph47%30.07 "Hg10 mi
10:00 am52 °FSunny.16 mph54%30.07 "Hg10 mi
9:30 am52 °FSunny.15 mph54%30.07 "Hg10 mi
9:00 am50 °FSunny.9 mph54%30.09 "Hg10 mi
Weather by CustomWeather, © 2017

See weather overviewHow to use our weather pages